Time,TemperatureF,DewpointF,PressureIn,WindDirection,WindDirectionDegrees,WindSpeedMPH,WindSpeedGustMPH,Humidity,HourlyPrecipIn,Conditions,Clouds,dailyrainin,SoftwareType,DateUTC
2013-04-22 00:00:00,40.5,39.9,30.06,WNW,286,2.0,3.0,98,0.00,RA,,0.00,WeatherDisplay:10.37,2013-04-22 05:00:00,
2013-04-22 00:05:00,39.0,38.2,30.06,WNW,300,2.0,3.0,97,0.00,RA,,0.00,WeatherDisplay:10.37,2013-04-22 05:05:00,
2013-04-22 00:10:00,38.8,38.1,30.06,WNW,302,2.0,3.0,97,0.00,CLR,,0.00,WeatherDisplay:10.37,2013-04-22 05:10:00,
2013-04-22 00:15:00,38.7,38.0,30.06,WNW,293,1.0,3.0,97,0.00,CLR,,0.00,WeatherDisplay:10.37,2013-04-22 05:15:00,
2013-04-22 00:20:00,38.7,37.9,30.09,WNW,294,0.0,2.0,97,0.00,CLR,,0.00,WeatherDisplay:10.37,2013-04-22 05:20:00,
2013-04-22 00:25:00,38.5,37.7,30.09,NW,314,1.0,2.0,97,0.00,CLR,,0.00,WeatherDisplay:10.37,2013-04-22 05:25:00,
2013-04-22 00:30:00,38.5,37.7,30.09,NW,313,2.0,3.0,97,0.00,CLR,,0.00,WeatherDisplay:10.37,2013-04-22 05:30:00,
2013-04-22 00:35:00,38.5,37.7,30.09,NW,304,2.0,4.0,97,0.00,CLR,,0.00,WeatherDisplay:10.37,2013-04-22 05:35:00,
2013-04-22 00:40:00,38.5,37.7,30.09,WNW,292,2.0,5.0,97,0.00,CLR,,0.00,WeatherDisplay:10.37,2013-04-22 05:40:00,
2013-04-22 00:45:00,38.3,37.5,30.09,WNW,290,1.0,3.0,97,0.00,CLR,,0.00,WeatherDisplay:10.37,2013-04-22 05:45:00,
2013-04-22 00:50:00,38.4,37.7,30.09,WNW,299,2.0,3.0,97,0.00,CLR,,0.00,WeatherDisplay:10.37,2013-04-22 05:50:00,
2013-04-22 00:55:00,38.3,37.5,30.09,WNW,303,1.0,3.0,97,0.00,CLR,,0.00,WeatherDisplay:10.37,2013-04-22 05:55:00,
2013-04-22 01:00:00,38.3,37.5,30.09,WNW,288,1.0,4.0,97,0.00,CLR,,0.00,WeatherDisplay:10.37,2013-04-22 06:00:00,
2013-04-22 01:05:00,38.1,37.3,30.09,West,279,1.0,5.0,97,0.00,CLR,,0.00,WeatherDisplay:10.37,2013-04-22 06:05:00,
2013-04-22 01:10:00,38.1,37.3,30.09,WNW,300,3.0,5.0,97,0.00,CLR,,0.00,WeatherDisplay:10.37,2013-04-22 06:10:00,
2013-04-22 01:15:00,38.1,37.6,30.09,NW,305,1.0,5.0,98,0.00,CLR,,0.00,WeatherDisplay:10.37,2013-04-22 06:15:00,
2013-04-22 01:20:00,38.1,37.6,30.09,NW,304,2.0,3.0,98,0.00,CLR,,0.00,WeatherDisplay:10.37,2013-04-22 06:20:00,
2013-04-22 01:25:00,38.0,37.5,30.09,WNW,293,1.0,4.0,98,0.00,CLR,,0.00,WeatherDisplay:10.37,2013-04-22 06:25:00,
2013-04-22 01:30:00,37.9,37.4,30.09,WNW,294,1.0,2.0,98,0.00,CLR,,0.00,WeatherDisplay:10.37,2013-04-22 06:30:00,
2013-04-22 01:35:00,37.9,37.4,30.09,NW,317,2.0,4.0,98,0.00,CLR,,0.00,WeatherDisplay:10.37,2013-04-22 06:35:00,
2013-04-22 01:40:00,37.8,37.2,30.09,NW,304,2.0,3.0,98,0.00,CLR,,0.00,WeatherDisplay:10.37,2013-04-22 06:40:00,
2013-04-22 01:45:00,37.8,37.2,30.09,NW,305,2.0,4.0,98,0.00,CLR,,0.00,WeatherDisplay:10.37,2013-04-22 06:45:00,
2013-04-22 01:50:00,37.8,37.2,30.09,WNW,293,1.0,2.0,98,0.00,CLR,,0.00,WeatherDisplay:10.37,2013-04-22 06:50:00,
2013-04-22 01:55:00,37.8,37.2,30.09,WNW,285,2.0,3.0,98,0.00,CLR,,0.00,WeatherDisplay:10.37,2013-04-22 06:55:00,
2013-04-22 02:00:00,37.8,37.2,30.09,NW,310,2.0,3.0,98,0.00,CLR,,0.00,WeatherDisplay:10.37,2013-04-22 07:00:00,
2013-04-22 02:05:00,37.7,37.2,30.09,NNW,331,2.0,4.0,98,0.00,CLR,,0.00,WeatherDisplay:10.37,2013-04-22 07:05:00,
2013-04-22 02:10:00,37.4,36.9,30.09,NNW,341,2.0,4.0,98,0.00,CLR,,0.00,WeatherDisplay:10.37,2013-04-22 07:10:00,
2013-04-22 02:15:00,37.2,36.7,30.09,NNW,331,3.0,6.0,98,0.00,CLR,,0.00,WeatherDisplay:10.37,2013-04-22 07:15:00,
2013-04-22 02:20:00,37.0,36.5,30.12,NNW,328,3.0,4.0,98,0.00,CLR,,0.00,WeatherDisplay:10.37,2013-04-22 07:20:00,
2013-04-22 02:25:00,37.0,36.5,30.12,North,349,3.0,5.0,98,0.00,CLR,,0.00,WeatherDisplay:10.37,2013-04-22 07:25:00,
2013-04-22 02:30:00,37.0,36.5,30.12,North,358,2.0,3.0,98,0.00,CLR,,0.00,WeatherDisplay:10.37,2013-04-22 07:30:00,
2013-04-22 02:35:00,36.9,36.3,30.12,North,354,2.0,5.0,98,0.00,CLR,,0.00,WeatherDisplay:10.37,2013-04-22 07:35:00,
2013-04-22 02:40:00,36.9,36.3,30.12,North,350,2.0,4.0,98,0.00,CLR,,0.00,WeatherDisplay:10.37,2013-04-22 07:40:00,
2013-04-22 02:45:00,36.9,36.1,30.12,North,349,2.0,5.0,97,0.00,CLR,,0.00,WeatherDisplay:10.37,2013-04-22 07:45:00,
2013-04-22 02:50:00,36.9,36.1,30.12,NNW,344,3.0,5.0,97,0.00,CLR,,0.00,WeatherDisplay:10.37,2013-04-22 07:50:00,
2013-04-22 02:55:00,36.7,35.6,30.12,NNW,341,3.0,5.0,96,0.00,CLR,,0.00,WeatherDisplay:10.37,2013-04-22 07:55:00,
2013-04-22 03:00:00,36.7,35.4,30.12,NNW,338,3.0,6.0,95,0.00,CLR,,0.00,WeatherDisplay:10.37,2013-04-22 08:00:00,
2013-04-22 03:05:00,36.7,35.4,30.12,NNW,336,3.0,6.0,95,0.00,CLR,,0.00,WeatherDisplay:10.37,2013-04-22 08:05:00,
2013-04-22 03:10:00,36.7,35.1,30.12,North,351,1.0,3.0,94,0.00,CLR,,0.00,WeatherDisplay:10.37,2013-04-22 08:10:00,
2013-04-22 03:15:00,36.5,34.9,30.12,NNE,12,1.0,2.0,94,0.00,CLR,,0.00,WeatherDisplay:10.37,2013-04-22 08:15:00,
2013-04-22 03:20:00,36.5,34.9,30.09,NNW,342,2.0,3.0,94,0.00,CLR,,0.00,WeatherDisplay:10.37,2013-04-22 08:20:00,
2013-04-22 03:25:00,36.3,34.8,30.09,WNW,293,1.0,2.0,94,0.00,CLR,,0.00,WeatherDisplay:10.37,2013-04-22 08:25:00,
2013-04-22 03:30:00,36.3,34.5,30.09,West,276,2.0,3.0,93,0.00,CLR,,0.00,WeatherDisplay:10.37,2013-04-22 08:30:00,
2013-04-22 03:35:00,36.4,34.5,30.12,NW,310,1.0,3.0,93,0.00,CLR,,0.00,WeatherDisplay:10.37,2013-04-22 08:35:00,
2013-04-22 03:40:00,36.3,34.5,30.12,NNW,340,2.0,3.0,93,0.00,CLR,,0.00,WeatherDisplay:10.37,2013-04-22 08:40:00,
2013-04-22 03:45:00,36.3,34.5,30.12,NNW,344,1.0,3.0,93,0.00,CLR,,0.00,WeatherDisplay:10.37,2013-04-22 08:45:00,
2013-04-22 03:50:00,36.3,34.5,30.12,North,353,0.0,2.0,93,0.00,CLR,,0.00,WeatherDisplay:10.37,2013-04-22 08:50:00,
2013-04-22 03:55:00,36.3,34.5,30.12,North,2,0.0,1.0,93,0.00,CLR,,0.00,WeatherDisplay:10.37,2013-04-22 08:55:00,
2013-04-22 04:00:00,36.3,34.4,30.12,NW,320,1.0,3.0,93,0.00,CLR,,0.00,WeatherDisplay:10.37,2013-04-22 09:00:00,
2013-04-22 04:05:00,36.1,34.3,30.12,WNW,284,1.0,3.0,93,0.00,CLR,,0.00,WeatherDisplay:10.37,2013-04-22 09:05:00,
2013-04-22 04:10:00,36.1,34.3,30.12,NW,316,0.0,3.0,93,0.00,CLR,,0.00,WeatherDisplay:10.37,2013-04-22 09:10:00,
2013-04-22 04:15:00,36.1,34.3,30.12,North,3,0.0,3.0,93,0.00,CLR,,0.00,WeatherDisplay:10.37,2013-04-22 09:15:00,
2013-04-22 04:20:00,36.1,34.3,30.12,NNE,22,0.0,1.0,93,0.00,CLR,,0.00,WeatherDisplay:10.37,2013-04-22 09:20:00,
2013-04-22 04:25:00,36.1,34.3,30.12,NNE,22,0.0,0.0,93,0.00,CLR,,0.00,WeatherDisplay:10.37,2013-04-22 09:25:00,
2013-04-22 04:30:00,36.1,34.0,30.12,NNE,22,0.0,0.0,92,0.00,CLR,,0.00,WeatherDisplay:10.37,2013-04-22 09:30:00,
2013-04-22 04:35:00,36.1,34.0,30.15,NNE,22,0.0,0.0,92,0.00,CLR,,0.00,WeatherDisplay:10.37,2013-04-22 09:35:00,
2013-04-22 04:40:00,36.1,34.0,30.15,North,351,0.0,3.0,92,0.00,CLR,,0.00,WeatherDisplay:10.37,2013-04-22 09:40:00,
2013-04-22 04:45:00,36.1,34.0,30.15,NNW,335,1.0,3.0,92,0.00,CLR,,0.00,WeatherDisplay:10.37,2013-04-22 09:45:00,
2013-04-22 04:50:00,36.1,34.0,30.15,NNW,344,1.0,3.0,92,0.00,CLR,,0.00,WeatherDisplay:10.37,2013-04-22 09:50:00,
2013-04-22 04:55:00,36.1,33.5,30.15,North,358,1.0,2.0,90,0.00,CLR,,0.00,WeatherDisplay:10.37,2013-04-22 09:55:00,
2013-04-22 05:00:00,36.1,33.2,30.15,North,354,0.0,3.0,89,0.00,CLR,,0.00,WeatherDisplay:10.37,2013-04-22 10:00:00,
2013-04-22 05:05:00,36.1,33.2,30.15,North,10,0.0,1.0,89,0.00,CLR,,0.00,WeatherDisplay:10.37,2013-04-22 10:05:00,
2013-04-22 05:10:00,36.0,33.0,30.15,NNE,22,0.0,0.0,89,0.00,CLR,,0.00,WeatherDisplay:10.37,2013-04-22 10:10:00,
2013-04-22 05:15:00,36.0,33.0,30.15,NNE,22,0.0,0.0,89,0.00,CLR,,0.00,WeatherDisplay:10.37,2013-04-22 10:15:00,
2013-04-22 05:20:00,35.8,32.6,30.15,NNE,22,0.0,0.0,88,0.00,CLR,,0.00,WeatherDisplay:10.37,2013-04-22 10:20:00,
2013-04-22 05:25:00,35.8,32.6,30.15,NNE,22,0.0,0.0,88,0.00,CLR,,0.00,WeatherDisplay:10.37,2013-04-22 10:25:00,
2013-04-22 05:30:00,35.8,32.6,30.15,NNE,22,0.0,0.0,88,0.00,CLR,,0.00,WeatherDisplay:10.37,2013-04-22 10:30:00,
2013-04-22 05:35:00,35.8,32.6,30.15,NNE,22,0.0,0.0,88,0.00,CLR,,0.00,WeatherDisplay:10.37,2013-04-22 10:35:00,
2013-04-22 05:40:00,35.6,32.4,30.15,NNE,22,0.0,0.0,88,0.00,CLR,,0.00,WeatherDisplay:10.37,2013-04-22 10:40:00,
2013-04-22 05:45:00,35.6,32.4,30.15,NNE,22,0.0,0.0,88,0.00,CLR,,0.00,WeatherDisplay:10.37,2013-04-22 10:45:00,
2013-04-22 05:50:00,35.6,32.7,30.15,NNE,22,0.0,1.0,89,0.00,CLR,,0.00,WeatherDisplay:10.37,2013-04-22 10:50:00,
2013-04-22 05:55:00,35.4,32.5,30.15,NNE,22,0.0,0.0,89,0.00,CLR,,0.00,WeatherDisplay:10.37,2013-04-22 10:55:00,
2013-04-22 06:00:00,35.4,32.8,30.15,NNE,22,0.0,1.0,90,0.00,CLR,,0.00,WeatherDisplay:10.37,2013-04-22 11:00:00,
2013-04-22 06:05:00,35.4,32.5,30.15,NNE,21,0.0,2.0,89,0.00,CLR,,0.00,WeatherDisplay:10.37,2013-04-22 11:05:00,
2013-04-22 06:10:00,35.4,32.5,30.15,NNE,17,2.0,2.0,89,0.00,CLR,,0.00,WeatherDisplay:10.37,2013-04-22 11:10:00,
2013-04-22 06:15:00,35.2,32.0,30.15,NNE,18,1.0,2.0,88,0.00,CLR,,0.00,WeatherDisplay:10.37,2013-04-22 11:15:00,
2013-04-22 06:20:00,35.2,31.8,30.15,NNE,20,0.0,1.0,87,0.00,CLR,,0.00,WeatherDisplay:10.37,2013-04-22 11:20:00,
2013-04-22 06:25:00,35.2,31.5,30.15,NNE,27,1.0,2.0,86,0.00,CLR,,0.00,WeatherDisplay:10.37,2013-04-22 11:25:00,
2013-04-22 06:30:00,35.2,30.9,30.15,NNE,24,2.0,3.0,84,0.00,CLR,,0.00,WeatherDisplay:10.37,2013-04-22 11:30:00,
2013-04-22 06:35:00,35.2,30.6,30.15,NNE,31,2.0,4.0,83,0.00,CLR,,0.00,WeatherDisplay:10.37,2013-04-22 11:35:00,
2013-04-22 06:40:00,35.2,30.3,30.15,NNE,30,1.0,3.0,82,0.00,CLR,,0.00,WeatherDisplay:10.37,2013-04-22 11:40:00,
2013-04-22 06:45:00,35.2,30.3,30.15,NNE,22,1.0,3.0,82,0.00,CLR,,0.00,WeatherDisplay:10.37,2013-04-22 11:45:00,
2013-04-22 06:50:00,35.2,30.3,30.15,NNE,14,0.0,2.0,82,0.00,CLR,,0.00,WeatherDisplay:10.37,2013-04-22 11:50:00,
2013-04-22 06:55:00,35.2,30.3,30.15,North,5,2.0,4.0,82,0.00,CLR,,0.00,WeatherDisplay:10.37,2013-04-22 11:55:00,
2013-04-22 07:00:00,35.1,30.1,30.15,NNE,14,1.0,2.0,82,0.00,CLR,,0.00,WeatherDisplay:10.37,2013-04-22 12:00:00,
2013-04-22 07:05:00,35.2,30.6,30.15,North,11,0.0,2.0,83,0.00,CLR,,0.00,WeatherDisplay:10.37,2013-04-22 12:05:00,
2013-04-22 07:10:00,35.2,30.6,30.15,North,356,0.0,2.0,83,0.00,CLR,,0.00,WeatherDisplay:10.37,2013-04-22 12:10:00,
2013-04-22 07:15:00,35.2,30.9,30.15,North,355,0.0,2.0,84,0.00,CLR,,0.00,WeatherDisplay:10.37,2013-04-22 12:15:00,
2013-04-22 07:20:00,35.4,31.1,30.18,North,2,1.0,3.0,84,0.00,CLR,,0.00,WeatherDisplay:10.37,2013-04-22 12:20:00,
2013-04-22 07:25:00,35.6,30.9,30.18,North,9,0.0,3.0,83,0.00,CLR,,0.00,WeatherDisplay:10.37,2013-04-22 12:25:00,
2013-04-22 07:30:00,36.1,31.5,30.18,NNE,19,1.0,2.0,83,0.00,CLR,,0.00,WeatherDisplay:10.37,2013-04-22 12:30:00,
2013-04-22 07:35:00,36.6,31.6,30.18,NNE,21,1.0,2.0,82,0.00,CLR,,0.00,WeatherDisplay:10.37,2013-04-22 12:35:00,
2013-04-22 07:45:00,37.2,31.6,30.18,NE,38,1.0,3.0,80,0.00,CLR,,0.00,WeatherDisplay:10.37,2013-04-22 12:45:00,
2013-04-22 07:50:00,37.4,31.2,30.15,NNE,31,1.0,2.0,78,0.00,CLR,,0.00,WeatherDisplay:10.37,2013-04-22 12:50:00,
2013-04-22 07:55:00,37.4,30.8,30.15,NNE,21,0.0,6.0,77,0.00,CLR,,0.00,WeatherDisplay:10.37,2013-04-22 12:55:00,
2013-04-22 08:00:00,37.2,30.0,30.15,NE,38,2.0,6.0,75,0.00,CLR,,0.00,WeatherDisplay:10.37,2013-04-22 13:00:00,
2013-04-22 08:05:00,37.4,29.9,30.18,NNE,29,1.0,3.0,74,0.00,CLR,,0.00,WeatherDisplay:10.37,2013-04-22 13:05:00,
2013-04-22 08:10:00,37.4,28.9,30.18,NNE,24,5.0,6.0,71,0.00,CLR,,0.00,WeatherDisplay:10.37,2013-04-22 13:10:00,
2013-04-22 08:15:00,37.8,29.2,30.18,NNE,21,3.0,4.0,71,0.00,CLR,,0.00,WeatherDisplay:10.37,2013-04-22 13:15:00,
2013-04-22 08:20:00,38.4,29.8,30.15,NNE,27,2.0,5.0,71,0.00,CLR,,0.00,WeatherDisplay:10.37,2013-04-22 13:20:00,
2013-04-22 08:25:00,38.1,27.4,30.15,NNE,22,6.0,8.0,65,0.00,CLR,,0.00,WeatherDisplay:10.37,2013-04-22 13:25:00,
2013-04-22 08:30:00,38.5,27.0,30.15,NE,36,2.0,8.0,63,0.00,CLR,,0.00,WeatherDisplay:10.37,2013-04-22 13:30:00,
2013-04-22 08:35:00,38.4,26.5,30.15,ENE,76,2.0,3.0,62,0.00,CLR,,0.00,WeatherDisplay:10.37,2013-04-22 13:35:00,
2013-04-22 08:40:00,38.7,26.8,30.15,ENE,57,2.0,5.0,62,0.00,CLR,,0.00,WeatherDisplay:10.37,2013-04-22 13:40:00,
2013-04-22 08:45:00,39.0,26.7,30.15,NNE,30,5.0,7.0,61,0.00,CLR,,0.00,WeatherDisplay:10.37,2013-04-22 13:45:00,
2013-04-22 08:50:00,39.0,25.9,30.15,NNE,23,5.0,5.0,59,0.00,CLR,,0.00,WeatherDisplay:10.37,2013-04-22 13:50:00,
2013-04-22 08:55:00,39.1,26.4,30.15,NE,39,3.0,8.0,60,0.00,CLR,,0.00,WeatherDisplay:10.37,2013-04-22 13:55:00,
2013-04-22 09:00:00,39.2,25.6,30.15,NE,44,6.0,6.0,58,0.00,CLR,,0.00,WeatherDisplay:10.37,2013-04-22 14:00:00,
2013-04-22 09:05:00,39.9,27.1,30.15,NE,34,1.0,5.0,60,0.00,CLR,,0.00,WeatherDisplay:10.37,2013-04-22 14:05:00,
2013-04-22 09:10:00,40.5,26.9,30.15,NE,34,3.0,6.0,58,0.00,CLR,,0.00,WeatherDisplay:10.37,2013-04-22 14:10:00,
2013-04-22 09:15:00,40.6,27.0,30.15,NNE,28,3.0,5.0,58,0.00,CLR,,0.00,WeatherDisplay:10.37,2013-04-22 14:15:00,
2013-04-22 09:20:00,40.5,26.4,30.15,NNE,18,5.0,10.0,57,0.00,CLR,,0.00,WeatherDisplay:10.37,2013-04-22 14:20:00,
2013-04-22 09:25:00,40.8,26.7,30.15,NNE,18,5.0,10.0,57,0.00,CLR,,0.00,WeatherDisplay:10.37,2013-04-22 14:25:00,
2013-04-22 09:30:00,41.5,27.0,30.15,NNE,27,3.0,9.0,56,0.00,CLR,,0.00,WeatherDisplay:10.37,2013-04-22 14:30:00,
2013-04-22 09:35:00,41.5,26.6,30.15,NNE,14,6.0,12.0,55,0.00,CLR,,0.00,WeatherDisplay:10.37,2013-04-22 14:35:00,
2013-04-22 09:40:00,41.2,25.8,30.15,NNE,20,5.0,8.0,54,0.00,CLR,,0.00,WeatherDisplay:10.37,2013-04-22 14:40:00,
2013-04-22 09:45:00,41.7,26.7,30.15,NNE,30,3.0,6.0,55,0.00,CLR,,0.00,WeatherDisplay:10.37,2013-04-22 14:45:00,
2013-04-22 09:50:00,42.2,26.7,30.15,NNE,24,2.0,6.0,54,0.00,CLR,,0.00,WeatherDisplay:10.37,2013-04-22 14:50:00,
2013-04-22 09:55:00,42.2,26.8,30.15,NNE,25,3.0,6.0,54,0.00,CLR,,0.00,WeatherDisplay:10.37,2013-04-22 14:55:00,
2013-04-22 10:00:00,42.1,26.6,30.15,NNE,20,3.0,8.0,54,0.00,CLR,,0.00,WeatherDisplay:10.37,2013-04-22 15:00:00,
2013-04-22 10:05:00,42.3,26.3,30.18,North,10,3.0,6.0,53,0.00,CLR,,0.00,WeatherDisplay:10.37,2013-04-22 15:05:00,
2013-04-22 10:10:00,43.0,27.0,30.18,North,3,5.0,6.0,53,0.00,CLR,,0.00,WeatherDisplay:10.37,2013-04-22 15:10:00,
2013-04-22 10:15:00,42.5,26.5,30.18,NNE,15,7.0,10.0,53,0.00,CLR,,0.00,WeatherDisplay:10.37,2013-04-22 15:15:00,
2013-04-22 10:20:00,42.4,26.5,30.18,NNE,26,3.0,6.0,53,0.00,CLR,,0.00,WeatherDisplay:10.37,2013-04-22 15:20:00,
2013-04-22 10:25:00,42.5,26.5,30.18,NNE,26,2.0,10.0,53,0.00,CLR,,0.00,WeatherDisplay:10.37,2013-04-22 15:25:00,
2013-04-22 10:30:00,42.5,26.1,30.18,NNE,19,6.0,6.0,52,0.00,CLR,,0.00,WeatherDisplay:10.37,2013-04-22 15:30:00,
2013-04-22 10:35:00,42.5,26.1,30.18,NE,34,5.0,5.0,52,0.00,CLR,,0.00,WeatherDisplay:10.37,2013-04-22 15:35:00,
2013-04-22 10:40:00,42.8,26.4,30.18,NE,34,5.0,6.0,52,0.00,CLR,,0.00,WeatherDisplay:10.37,2013-04-22 15:40:00,
2013-04-22 10:45:00,43.3,26.4,30.18,NE,37,3.0,6.0,51,0.00,CLR,,0.00,WeatherDisplay:10.37,2013-04-22 15:45:00,
2013-04-22 10:50:00,43.6,27.1,30.18,NE,38,2.0,6.0,52,0.00,CLR,,0.00,WeatherDisplay:10.37,2013-04-22 15:50:00,
2013-04-22 10:55:00,43.7,26.8,30.18,NNE,22,2.0,6.0,51,0.00,CLR,,0.00,WeatherDisplay:10.37,2013-04-22 15:55:00,
2013-04-22 11:00:00,44.1,27.1,30.18,North,11,2.0,5.0,51,0.00,CLR,,0.00,WeatherDisplay:10.37,2013-04-22 16:00:00,
2013-04-22 11:05:00,44.7,27.6,30.18,NNE,15,3.0,5.0,51,0.00,CLR,,0.00,WeatherDisplay:10.37,2013-04-22 16:05:00,
2013-04-22 11:10:00,44.2,26.8,30.18,NNE,17,5.0,7.0,50,0.00,CLR,,0.00,WeatherDisplay:10.37,2013-04-22 16:10:00,
2013-04-22 11:15:00,44.5,27.0,30.18,North,10,3.0,6.0,50,0.00,CLR,,0.00,WeatherDisplay:10.37,2013-04-22 16:15:00,
2013-04-22 11:20:00,44.7,27.2,30.18,NNE,14,3.0,7.0,50,0.00,CLR,,0.00,WeatherDisplay:10.37,2013-04-22 16:20:00,
2013-04-22 11:25:00,45.1,27.6,30.18,North,7,5.0,7.0,50,0.00,CLR,,0.00,WeatherDisplay:10.37,2013-04-22 16:25:00,
2013-04-22 11:30:00,45.3,27.8,30.18,NNE,13,3.0,5.0,50,0.00,CLR,,0.00,WeatherDisplay:10.37,2013-04-22 16:30:00,
2013-04-22 11:35:00,45.3,27.3,30.18,NNE,22,3.0,6.0,49,0.00,CLR,,0.00,WeatherDisplay:10.37,2013-04-22 16:35:00,
2013-04-22 11:40:00,45.3,27.8,30.18,NNE,18,5.0,7.0,50,0.00,CLR,,0.00,WeatherDisplay:10.37,2013-04-22 16:40:00,
2013-04-22 11:45:00,45.4,27.3,30.18,NNE,16,3.0,4.0,49,0.00,CLR,,0.00,WeatherDisplay:10.37,2013-04-22 16:45:00,
2013-04-22 11:50:00,44.8,26.8,30.18,NNE,23,5.0,8.0,49,0.00,CLR,,0.00,WeatherDisplay:10.37,2013-04-22 16:50:00,
2013-04-22 11:55:00,45.5,27.4,30.18,NNE,27,2.0,6.0,49,0.00,CLR,,0.00,WeatherDisplay:10.37,2013-04-22 16:55:00,
2013-04-22 12:00:00,45.7,27.6,30.18,NNE,24,2.0,5.0,49,0.00,CLR,,0.00,WeatherDisplay:10.37,2013-04-22 17:00:00,
2013-04-22 12:05:00,45.9,27.8,30.18,North,353,5.0,5.0,49,0.00,CLR,,0.00,WeatherDisplay:10.37,2013-04-22 17:05:00,
2013-04-22 12:10:00,46.0,27.9,30.18,NNW,345,3.0,5.0,49,0.00,CLR,,0.00,WeatherDisplay:10.37,2013-04-22 17:10:00,
2013-04-22 12:15:00,46.7,28.0,30.18,North,4,5.0,5.0,48,0.00,CLR,,0.00,WeatherDisplay:10.37,2013-04-22 17:15:00,
2013-04-22 12:20:00,47.0,28.3,30.15,NNE,19,3.0,3.0,48,0.00,CLR,,0.00,WeatherDisplay:10.37,2013-04-22 17:20:00,
2013-04-22 12:25:00,46.9,28.2,30.15,NE,35,2.0,3.0,48,0.00,CLR,,0.00,WeatherDisplay:10.37,2013-04-22 17:25:00,
2013-04-22 12:30:00,46.4,27.7,30.15,NE,45,2.0,3.0,48,0.00,CLR,,0.00,WeatherDisplay:10.37,2013-04-22 17:30:00,
2013-04-22 12:35:00,46.3,27.6,30.15,NE,45,2.0,3.0,48,0.00,CLR,,0.00,WeatherDisplay:10.37,2013-04-22 17:35:00,
2013-04-22 12:40:00,46.5,27.9,30.15,North,10,6.0,7.0,48,0.00,CLR,,0.00,WeatherDisplay:10.37,2013-04-22 17:40:00,
2013-04-22 12:45:00,46.9,28.3,30.15,North,358,5.0,5.0,48,0.00,CLR,,0.00,WeatherDisplay:10.37,2013-04-22 17:45:00,
2013-04-22 12:50:00,46.6,27.4,30.15,North,0,5.0,5.0,47,0.00,CLR,,0.00,WeatherDisplay:10.37,2013-04-22 17:50:00,
2013-04-22 12:55:00,46.5,27.4,30.15,NNE,12,5.0,5.0,47,0.00,CLR,,0.00,WeatherDisplay:10.37,2013-04-22 17:55:00,
2013-04-22 13:00:00,46.5,27.3,30.15,NNE,22,5.0,5.0,47,0.00,CLR,,0.00,WeatherDisplay:10.37,2013-04-22 18:00:00,
2013-04-22 13:05:00,46.4,27.3,30.12,NNE,22,3.0,4.0,47,0.00,CLR,,0.00,WeatherDisplay:10.37,2013-04-22 18:05:00,
2013-04-22 13:10:00,46.6,27.4,30.12,North,7,6.0,6.0,47,0.00,CLR,,0.00,WeatherDisplay:10.37,2013-04-22 18:10:00,
2013-04-22 13:15:00,45.9,26.7,30.12,NNW,343,6.0,6.0,47,0.00,CLR,,0.00,WeatherDisplay:10.37,2013-04-22 18:15:00,
2013-04-22 13:20:00,46.3,27.6,30.12,North,355,5.0,5.0,48,0.00,CLR,,0.00,WeatherDisplay:10.37,2013-04-22 18:20:00,
2013-04-22 13:25:00,46.6,27.4,30.12,NNE,18,5.0,5.0,47,0.00,CLR,,0.00,WeatherDisplay:10.37,2013-04-22 18:25:00,
2013-04-22 13:30:00,46.3,27.2,30.12,NNE,22,8.0,8.0,47,0.00,CLR,,0.00,WeatherDisplay:10.37,2013-04-22 18:30:00,
2013-04-22 13:35:00,46.4,26.7,30.12,NNE,21,2.0,5.0,46,0.00,CLR,,0.00,WeatherDisplay:10.37,2013-04-22 18:35:00,
2013-04-22 13:40:00,45.9,26.3,30.12,NNE,21,6.0,6.0,46,0.00,CLR,,0.00,WeatherDisplay:10.37,2013-04-22 18:40:00,
2013-04-22 13:45:00,45.6,26.0,30.12,NE,36,6.0,7.0,46,0.00,CLR,,0.00,WeatherDisplay:10.37,2013-04-22 18:45:00,
2013-04-22 13:50:00,45.9,26.2,30.12,NE,40,6.0,6.0,46,0.00,CLR,,0.00,WeatherDisplay:10.37,2013-04-22 18:50:00,
2013-04-22 13:55:00,45.7,25.6,30.12,NNE,12,7.0,9.0,45,0.00,CLR,,0.00,WeatherDisplay:10.37,2013-04-22 18:55:00,
2013-04-22 14:00:00,45.5,25.4,30.12,NNE,27,5.0,6.0,45,0.00,CLR,,0.00,WeatherDisplay:10.37,2013-04-22 19:00:00,
2013-04-22 14:05:00,44.8,24.2,30.09,NE,35,8.0,9.0,44,0.00,CLR,,0.00,WeatherDisplay:10.37,2013-04-22 19:05:00,
2013-04-22 14:10:00,44.5,23.9,30.09,NNE,26,3.0,8.0,44,0.00,CLR,,0.00,WeatherDisplay:10.37,2013-04-22 19:10:00,
2013-04-22 14:15:00,44.1,24.1,30.09,NNE,26,3.0,4.0,45,0.00,CLR,,0.00,WeatherDisplay:10.37,2013-04-22 19:15:00,
2013-04-22 14:20:00,43.7,24.2,30.09,NNE,18,3.0,4.0,46,0.00,CLR,,0.00,WeatherDisplay:10.37,2013-04-22 19:20:00,
2013-04-22 14:25:00,43.6,24.1,30.09,North,7,3.0,5.0,46,0.00,CLR,,0.00,WeatherDisplay:10.37,2013-04-22 19:25:00,
2013-04-22 14:30:00,43.5,24.1,30.09,NNE,14,3.0,5.0,46,0.00,CLR,,0.00,WeatherDisplay:10.37,2013-04-22 19:30:00,
2013-04-22 14:35:00,43.7,24.2,30.12,NNE,22,2.0,3.0,46,0.00,CLR,,0.00,WeatherDisplay:10.37,2013-04-22 19:35:00,
2013-04-22 14:40:00,43.6,24.1,30.12,NNE,22,2.0,3.0,46,0.00,CLR,,0.00,WeatherDisplay:10.37,2013-04-22 19:40:00,
2013-04-22 14:45:00,43.5,24.1,30.12,North,2,2.0,6.0,46,0.00,CLR,,0.00,WeatherDisplay:10.37,2013-04-22 19:45:00,
2013-04-22 14:50:00,43.3,23.9,30.15,NNW,342,5.0,5.0,46,0.00,CLR,,0.00,WeatherDisplay:10.37,2013-04-22 19:50:00,
2013-04-22 14:55:00,43.3,23.9,30.15,NNW,345,3.0,5.0,46,0.00,CLR,,0.00,WeatherDisplay:10.37,2013-04-22 19:55:00,
2013-04-22 15:00:00,43.2,23.8,30.15,North,7,3.0,6.0,46,0.00,CLR,,0.00,WeatherDisplay:10.37,2013-04-22 20:00:00,
2013-04-22 15:05:00,43.5,24.1,30.15,NNE,21,2.0,3.0,46,0.00,CLR,,0.00,WeatherDisplay:10.37,2013-04-22 20:05:00,
2013-04-22 15:10:00,43.5,24.1,30.15,North,3,3.0,4.0,46,0.00,CLR,,0.00,WeatherDisplay:10.37,2013-04-22 20:10:00,
2013-04-22 15:15:00,43.3,23.3,30.15,NNW,343,3.0,4.0,45,0.00,CLR,,0.00,WeatherDisplay:10.37,2013-04-22 20:15:00,
2013-04-22 15:20:00,43.0,23.1,30.15,NNW,343,3.0,4.0,45,0.00,CLR,,0.00,WeatherDisplay:10.37,2013-04-22 20:20:00,
2013-04-22 15:25:00,42.8,22.9,30.15,North,5,2.0,3.0,45,0.00,CLR,,0.00,WeatherDisplay:10.37,2013-04-22 20:25:00,
2013-04-22 15:30:00,42.8,23.4,30.15,North,7,3.0,3.0,46,0.00,CLR,,0.00,WeatherDisplay:10.37,2013-04-22 20:30:00,
2013-04-22 15:35:00,43.0,23.6,30.12,North,359,3.0,7.0,46,0.00,CLR,,0.00,WeatherDisplay:10.37,2013-04-22 20:35:00,
2013-04-22 15:40:00,42.8,23.4,30.12,NNE,12,5.0,5.0,46,0.00,CLR,,0.00,WeatherDisplay:10.37,2013-04-22 20:40:00,
2013-04-22 15:45:00,42.4,23.1,30.12,NNE,22,5.0,5.0,46,0.00,CLR,,0.00,WeatherDisplay:10.37,2013-04-22 20:45:00,
2013-04-22 15:50:00,42.3,23.4,30.12,NNE,22,5.0,5.0,47,0.00,CLR,,0.00,WeatherDisplay:10.37,2013-04-22 20:50:00,
2013-04-22 15:55:00,41.9,23.1,30.12,NNE,22,5.0,5.0,47,0.00,CLR,,0.00,WeatherDisplay:10.37,2013-04-22 20:55:00,
2013-04-22 16:00:00,41.7,23.5,30.12,NNE,22,5.0,5.0,48,0.00,CLR,,0.00,WeatherDisplay:10.37,2013-04-22 21:00:00,
2013-04-22 16:05:00,41.5,23.3,30.12,NNE,22,5.0,5.0,48,0.00,CLR,,0.00,WeatherDisplay:10.37,2013-04-22 21:05:00,
2013-04-22 16:10:00,41.2,23.0,30.12,NNE,22,5.0,5.0,48,0.00,CLR,,0.00,WeatherDisplay:10.37,2013-04-22 21:10:00,
2013-04-22 16:15:00,40.8,23.1,30.12,NNE,22,5.0,5.0,49,0.00,CLR,,0.00,WeatherDisplay:10.37,2013-04-22 21:15:00,
2013-04-22 16:20:00,40.5,23.3,30.09,NNE,22,5.0,5.0,50,0.00,CLR,,0.00,WeatherDisplay:10.37,2013-04-22 21:20:00,
2013-04-22 16:25:00,40.3,23.6,30.09,NNE,22,5.0,5.0,51,0.00,CLR,,0.00,WeatherDisplay:10.37,2013-04-22 21:25:00,
2013-04-22 16:30:00,40.1,23.4,30.09,NNE,22,5.0,5.0,51,0.00,CLR,,0.00,WeatherDisplay:10.37,2013-04-22 21:30:00,
2013-04-22 16:35:00,39.9,23.2,30.09,NNE,22,5.0,5.0,51,0.00,CLR,,0.00,WeatherDisplay:10.37,2013-04-22 21:35:00,
2013-04-22 16:40:00,40.1,22.9,30.09,NNE,22,5.0,5.0,50,0.00,CLR,,0.00,WeatherDisplay:10.37,2013-04-22 21:40:00,
2013-04-22 16:45:00,40.3,23.6,30.09,NNE,22,5.0,5.0,51,0.00,CLR,,0.00,WeatherDisplay:10.37,2013-04-22 21:45:00,
2013-04-22 16:50:00,40.3,23.1,30.09,NNE,22,5.0,5.0,50,0.00,CLR,,0.00,WeatherDisplay:10.37,2013-04-22 21:50:00,
2013-04-22 16:55:00,40.4,23.2,30.09,NNE,22,5.0,5.0,50,0.00,CLR,,0.00,WeatherDisplay:10.37,2013-04-22 21:55:00,
2013-04-22 17:00:00,40.5,23.3,30.09,NNE,22,5.0,5.0,50,0.00,CLR,,0.00,WeatherDisplay:10.37,2013-04-22 22:00:00,
2013-04-22 17:05:00,40.5,23.3,30.09,NNE,22,5.0,5.0,50,0.00,CLR,,0.00,WeatherDisplay:10.37,2013-04-22 22:05:00,
2013-04-22 17:10:00,40.5,23.3,30.09,NNE,22,5.0,5.0,50,0.00,CLR,,0.00,WeatherDisplay:10.37,2013-04-22 22:10:00,
2013-04-22 17:15:00,40.3,23.1,30.09,NNE,22,5.0,5.0,50,0.00,CLR,,0.00,WeatherDisplay:10.37,2013-04-22 22:15:00,
2013-04-22 17:20:00,40.3,23.1,30.09,NNE,22,5.0,5.0,50,0.00,CLR,,0.00,WeatherDisplay:10.37,2013-04-22 22:20:00,
2013-04-22 17:25:00,40.2,23.0,30.09,NNE,22,6.0,6.0,50,0.00,CLR,,0.00,WeatherDisplay:10.37,2013-04-22 22:25:00,
2013-04-22 17:30:00,39.9,22.8,30.09,NNE,22,6.0,6.0,50,0.00,CLR,,0.00,WeatherDisplay:10.37,2013-04-22 22:30:00,
2013-04-22 17:35:00,39.6,22.9,30.09,NNE,22,3.0,5.0,51,0.00,CLR,,0.00,WeatherDisplay:10.37,2013-04-22 22:35:00,
2013-04-22 17:40:00,39.0,23.3,30.09,NNE,22,3.0,5.0,53,0.00,CLR,,0.00,WeatherDisplay:10.37,2013-04-22 22:40:00,
2013-04-22 17:45:00,38.7,23.4,30.09,NNE,22,3.0,5.0,54,0.00,CLR,,0.00,WeatherDisplay:10.37,2013-04-22 22:45:00,
2013-04-22 17:50:00,38.7,23.4,30.12,NNE,22,3.0,5.0,54,0.00,CLR,,0.00,WeatherDisplay:10.37,2013-04-22 22:50:00,
2013-04-22 17:55:00,38.5,23.7,30.12,NNE,22,3.0,5.0,55,0.00,CLR,,0.00,WeatherDisplay:10.37,2013-04-22 22:55:00,
2013-04-22 18:15:00,36.1,28.3,30.12,North,0,0.0,0.0,73,0.17,,,0.00,Cumulus v1.9.3,2013-04-22 23:15:00,
2013-04-22 18:20:00,35.6,29.4,30.12,North,0,0.0,0.0,78,0.17,,,0.00,Cumulus v1.9.3,2013-04-22 23:20:00,
2013-04-22 18:25:00,35.1,30.1,30.12,North,0,0.0,0.0,82,0.17,,,0.00,Cumulus v1.9.3,2013-04-22 23:25:00,
2013-04-22 18:30:00,34.9,30.8,30.12,North,0,0.0,0.0,85,0.17,,,0.00,Cumulus v1.9.3,2013-04-22 23:30:00,
2013-04-22 18:40:00,34.3,31.2,30.12,North,0,0.0,0.0,88,0.17,,,0.00,Cumulus v1.9.3,2013-04-22 23:40:00,
2013-04-22 18:50:00,33.8,31.7,30.12,NNE,22,2.9,5.8,92,0.17,,,0.00,Cumulus v1.9.3,2013-04-22 23:50:00,
2013-04-22 18:55:00,33.8,32.3,30.12,NNE,23,4.7,5.8,94,0.17,,,0.00,Cumulus v1.9.3,2013-04-22 23:55:00,
2013-04-22 19:00:00,33.8,32.3,30.12,NNE,18,3.5,3.8,94,0.17,,,0.00,Cumulus v1.9.3,2013-04-23 00:00:00,
2013-04-22 19:05:00,33.6,32.3,30.12,NNE,18,3.5,3.8,95,0.00,,,0.00,Cumulus v1.9.3,2013-04-23 00:05:00,
2013-04-22 19:10:00,33.6,32.3,30.12,NNE,27,4.9,12.5,95,0.00,,,0.00,Cumulus v1.9.3,2013-04-23 00:10:00,
2013-04-22 19:15:00,33.4,32.4,30.12,NNE,22,5.3,12.5,96,0.00,,,0.00,Cumulus v1.9.3,2013-04-23 00:15:00,
2013-04-22 19:20:00,33.3,32.2,30.12,NNE,22,5.3,12.5,96,0.00,,,0.00,Cumulus v1.9.3,2013-04-23 00:20:00,
2013-04-22 19:25:00,33.3,32.2,30.12,NNE,22,5.9,6.3,96,0.00,,,0.00,Cumulus v1.9.3,2013-04-23 00:25:00,
2013-04-22 19:29:00,33.3,32.2,30.12,NNE,30,4.3,7.4,96,0.00,,,0.00,Cumulus v1.9.3,2013-04-23 00:29:00,
2013-04-22 19:35:00,33.3,32.5,30.12,NNE,28,4.8,8.6,97,0.00,,,0.00,Cumulus v1.9.3,2013-04-23 00:35:00,
2013-04-22 19:40:00,33.1,32.3,30.12,NNE,28,4.8,8.6,97,0.00,,,0.00,Cumulus v1.9.3,2013-04-23 00:40:00,
2013-04-22 19:45:00,33.1,32.6,30.12,NNE,28,4.8,8.6,98,0.00,,,0.00,Cumulus v1.9.3,2013-04-23 00:45:00,
2013-04-22 19:50:00,33.1,32.6,30.12,NNE,23,5.2,5.2,98,0.00,,,0.00,Cumulus v1.9.3,2013-04-23 00:50:00,
2013-04-22 19:55:00,33.1,32.6,30.12,NE,34,5.4,18.0,98,0.00,,,0.00,Cumulus v1.9.3,2013-04-23 00:55:00,
2013-04-22 20:00:00,33.1,32.6,30.12,NNE,32,5.2,18.0,98,0.00,,,0.00,Cumulus v1.9.3,2013-04-23 01:00:00,
2013-04-22 20:05:00,33.1,32.6,30.12,NNE,28,5.1,12.9,98,0.00,,,0.00,Cumulus v1.9.3,2013-04-23 01:05:00,
2013-04-22 20:10:00,33.1,32.6,30.12,NNE,25,4.4,11.4,98,0.00,,,0.00,Cumulus v1.9.3,2013-04-23 01:10:00,
2013-04-22 20:15:00,33.1,32.6,30.12,NNE,23,4.2,11.0,98,0.00,,,0.00,Cumulus v1.9.3,2013-04-23 01:15:00,
2013-04-22 20:20:00,33.1,32.6,30.12,NNE,22,4.3,11.0,98,0.00,,,0.00,Cumulus v1.9.3,2013-04-23 01:20:00,
2013-04-22 20:25:00,33.1,32.6,30.12,NNE,22,3.6,8.6,98,0.00,,,0.00,Cumulus v1.9.3,2013-04-23 01:25:00,
2013-04-22 20:30:00,33.1,32.6,30.12,NNE,22,3.2,7.4,98,0.00,,,0.00,Cumulus v1.9.3,2013-04-23 01:30:00,
2013-04-22 20:35:00,33.1,32.6,30.12,NNE,23,3.1,6.7,98,0.00,,,0.00,Cumulus v1.9.3,2013-04-23 01:35:00,
2013-04-22 20:40:00,33.1,32.6,30.12,NNE,23,3.6,9.8,98,0.00,,,0.00,Cumulus v1.9.3,2013-04-23 01:40:00,
2013-04-22 20:45:00,33.1,32.6,30.12,NNE,23,4.1,9.8,98,0.00,,,0.00,Cumulus v1.9.3,2013-04-23 01:45:00,
2013-04-22 20:50:00,33.1,32.6,30.12,NNE,23,4.7,11.0,98,0.00,,,0.00,Cumulus v1.9.3,2013-04-23 01:50:00,
2013-04-22 20:55:00,32.9,32.4,30.12,NNE,22,4.7,11.0,98,0.00,,,0.00,Cumulus v1.9.3,2013-04-23 01:55:00,
2013-04-22 21:00:00,32.9,32.4,30.12,NNE,23,4.0,8.2,98,0.00,,,0.00,Cumulus v1.9.3,2013-04-23 02:00:00,
2013-04-22 21:05:00,32.9,32.4,30.12,NNE,23,4.2,10.2,98,0.00,,,0.00,Cumulus v1.9.3,2013-04-23 02:05:00,
2013-04-22 21:10:00,32.9,32.4,30.12,NNE,23,4.6,11.0,98,0.00,,,0.00,Cumulus v1.9.3,2013-04-23 02:10:00,
2013-04-22 21:15:00,32.9,32.4,30.12,NNE,22,4.2,11.0,98,0.00,,,0.00,Cumulus v1.9.3,2013-04-23 02:15:00,
2013-04-22 21:20:00,32.9,32.4,30.12,NNE,22,4.1,9.4,98,0.00,,,0.00,Cumulus v1.9.3,2013-04-23 02:20:00,
2013-04-22 21:25:00,32.9,32.4,30.12,NNE,22,4.6,11.0,98,0.00,,,0.00,Cumulus v1.9.3,2013-04-23 02:25:00,
2013-04-22 21:30:00,32.9,32.4,30.12,NNE,22,5.0,11.0,98,0.00,,,0.00,Cumulus v1.9.3,2013-04-23 02:30:00,
2013-04-22 21:35:00,32.9,32.4,30.12,NNE,23,4.9,12.5,98,0.00,,,0.00,Cumulus v1.9.3,2013-04-23 02:35:00,
2013-04-22 21:40:00,32.9,32.4,30.12,NNE,23,5.6,14.1,98,0.00,,,0.00,Cumulus v1.9.3,2013-04-23 02:40:00,
2013-04-22 21:45:00,32.9,32.4,30.12,NNE,23,5.6,14.1,98,0.00,,,0.00,Cumulus v1.9.3,2013-04-23 02:45:00,
2013-04-22 21:50:00,32.9,32.4,30.12,NNE,22,4.5,10.6,98,0.00,,,0.00,Cumulus v1.9.3,2013-04-23 02:50:00,
2013-04-22 21:55:00,32.9,32.4,30.12,NNE,22,4.0,10.6,98,0.00,,,0.00,Cumulus v1.9.3,2013-04-23 02:55:00,
2013-04-22 22:00:00,32.7,32.2,30.12,NNE,23,4.6,9.8,98,0.00,,,0.00,Cumulus v1.9.3,2013-04-23 03:00:00,
2013-04-22 22:05:00,32.7,32.2,30.12,NNE,22,4.7,8.6,98,0.00,,,0.00,Cumulus v1.9.3,2013-04-23 03:05:00,
2013-04-22 22:10:00,32.7,32.2,30.12,NNE,22,4.4,11.0,98,0.00,,,0.00,Cumulus v1.9.3,2013-04-23 03:10:00,
2013-04-22 22:15:00,32.7,32.2,30.12,NNE,22,4.6,11.0,98,0.00,,,0.00,Cumulus v1.9.3,2013-04-23 03:15:00,
2013-04-22 22:20:00,32.7,32.2,30.12,NNE,22,4.5,11.0,98,0.00,,,0.00,Cumulus v1.9.3,2013-04-23 03:20:00,
2013-04-22 22:25:00,32.7,32.2,30.12,NNE,22,3.7,9.4,98,0.00,,,0.00,Cumulus v1.9.3,2013-04-23 03:25:00,
2013-04-22 22:30:00,32.7,32.2,30.12,NNE,22,3.7,7.4,98,0.00,,,0.00,Cumulus v1.9.3,2013-04-23 03:30:00,
2013-04-22 22:35:00,32.7,32.2,30.12,NNE,22,4.1,10.2,98,0.00,,,0.00,Cumulus v1.9.3,2013-04-23 03:35:00,
2013-04-22 22:40:00,32.7,32.2,30.12,NNE,22,4.8,10.2,98,0.00,,,0.00,Cumulus v1.9.3,2013-04-23 03:40:00,
2013-04-22 22:45:00,32.7,32.2,30.12,NNE,23,5.2,11.4,98,0.00,,,0.00,Cumulus v1.9.3,2013-04-23 03:45:00,
2013-04-22 22:50:00,32.7,32.2,30.09,NNE,23,4.7,12.5,98,0.00,,,0.00,Cumulus v1.9.3,2013-04-23 03:50:00,
2013-04-22 22:55:00,32.7,32.2,30.09,NNE,22,4.6,12.5,98,0.00,,,0.00,Cumulus v1.9.3,2013-04-23 03:55:00,
2013-04-22 23:00:00,32.7,32.2,30.09,NNE,22,4.0,11.7,98,0.00,,,0.00,Cumulus v1.9.3,2013-04-23 04:00:00,
2013-04-22 23:05:00,32.7,32.2,30.09,NNE,22,3.9,7.4,98,0.00,,,0.00,Cumulus v1.9.3,2013-04-23 04:05:00,
2013-04-22 23:10:00,32.7,32.2,30.09,NNE,22,4.1,7.4,98,0.00,,,0.00,Cumulus v1.9.3,2013-04-23 04:10:00,
2013-04-22 23:15:00,32.7,32.2,30.09,NNE,23,4.1,7.4,98,0.00,,,0.00,Cumulus v1.9.3,2013-04-23 04:15:00,
2013-04-22 23:20:00,32.7,32.2,30.12,NNE,23,3.9,7.0,98,0.00,,,0.00,Cumulus v1.9.3,2013-04-23 04:20:00,
2013-04-22 23:25:00,32.7,32.2,30.12,NNE,22,3.7,10.2,98,0.00,,,0.00,Cumulus v1.9.3,2013-04-23 04:25:00,
2013-04-22 23:30:00,32.7,32.2,30.12,NNE,22,3.7,10.2,98,0.00,,,0.00,Cumulus v1.9.3,2013-04-23 04:30:00,
2013-04-22 23:35:00,32.7,32.2,30.12,NNE,22,3.5,7.0,98,0.00,,,0.00,Cumulus v1.9.3,2013-04-23 04:35:00,
2013-04-22 23:40:00,32.7,32.2,30.12,NNE,23,3.5,7.0,98,0.00,,,0.00,Cumulus v1.9.3,2013-04-23 04:40:00,
2013-04-22 23:45:00,32.7,32.2,30.12,NNE,22,3.3,6.7,98,0.00,,,0.00,Cumulus v1.9.3,2013-04-23 04:45:00,
2013-04-22 23:50:00,32.5,32.0,30.12,NNE,23,3.1,7.4,98,0.00,,,0.00,Cumulus v1.9.3,2013-04-23 04:50:00,
2013-04-22 23:55:00,32.5,32.0,30.12,NNE,22,3.1,7.4,98,0.00,,,0.00,Cumulus v1.9.3,2013-04-23 04:55:00,